Hourly Data Report for March 22, 2012

All times are specified in Local Standard Time (LST). Add 1 hour to adjust for Daylight Saving Time where and when it is observed.

GREENWOOD A
NOVA SCOTIA

44°59'00.000" N
64°55'00.000" W
28.00 m
8202000
71397
YZX

Download Data

Hourly Data (March 2012)
Hourly Data Report for March 22, 2012
Temp Definition
°C
Dew Point Temp Definition
°C
Rel Hum Definition
%
Wind Dir Definition
10's deg

Wind Spd Definition
km/h
Visibility Definition
km
Stn Press Definition
kPa
Hmdx Definition


Wind Chill Definition


Weather Definition


TIME
00:00 12.2 9.5 84 23 7 24.1 101.56     Clear
01:00 11.5 9.2 86 24 11 24.1 101.53     Clear
02:00 11.5 9.0 85 24 11 24.1 101.51     Clear
03:00 10.6 8.8 89 23 6 24.1 101.45     Clear
04:00 10.5 8.7 89 22 7 24.1 101.40     Clear
05:00 10.0 8.7 92 24 7 24.1 101.37     Clear
06:00 10.0 8.9 93 23 9 24.1 101.39     Clear
07:00 10.4 8.8 90 24 13 24.1 101.36     Clear
08:00 12.0 9.9 87 24 13 24.1 101.32     Clear
09:00 15.6 11.0 74 23 11 24.1 101.29     Clear
10:00 19.0 12.1 64 24 15 24.1 101.21     Clear
11:00 23.1 13.1 53 25 24 24.1 101.12 26   Clear
12:00 24.7 12.8 47 25 30 24.1 101.03 27   Clear
13:00 25.0 12.2 45 27 30 24.1 100.96 27   Clear
14:00 25.4 12.1 44 26 30 24.1 100.86 28   Mainly Clear
15:00 25.5 12.2 44 26 32 24.1 100.76 28   Mainly Clear
16:00 25.6 12.6 44 23 26 24.1 100.68 28   Mostly Cloudy
17:00 24.2 12.5 48 24 26 24.1 100.63 27   Mainly Clear
18:00 21.2 11.3 53 24 30 24.1 100.63     Mainly Clear
19:00 18.2 10.6 61 25 17 24.1 100.57     Mostly Cloudy
20:00 16.7 10.2 65 25 20 24.1 100.67     Mostly Cloudy
21:00 16.2 10.2 68 26 9 24.1 100.75     Mostly Cloudy
22:00 16.2 9.4 64 34 7 24.1 100.84     Cloudy
23:00 14.8 8.1 64 23 6 24.1 100.86     Mainly Clear

Notes on Data Quality.

Legend

  • E = Estimated
  • M = Missing
  • NA = Not Available
Date modified: